This is the latest recevied weather packets stored in our database for station/object KF0JJO. If no packets are shown the sender has not sent any weather packets the latest 10 day(s).
| Time | Temp. | Humidity | Pressure | Rain* | Wind** | Luminosity | Snow |
|---|---|---|---|---|---|---|---|
| 1777839458 | 23.33° C | 21% | 1036.8 hPa | 0 mm | - | 854 W/m² | - |
| 1777839156 | 23.33° C | 23% | 1037.1 hPa | 0 mm | - | 863 W/m² | - |
| 1777838852 | 23.33° C | 22% | 1037 hPa | 0 mm | - | 877 W/m² | - |
| 1777838548 | 23.33° C | 22% | 1037.1 hPa | 0 mm | - | 885 W/m² | - |
| 1777838245 | 22.78° C | 22% | 1037.1 hPa | 0 mm | - | 894 W/m² | - |
| 1777837942 | 22.78° C | 21% | 1037.3 hPa | 0 mm | - | 901 W/m² | - |
| 1777837639 | 22.78° C | 22% | 1037.3 hPa | 0 mm | - | 906 W/m² | - |
| 1777837335 | 22.78° C | 22% | 1037.5 hPa | 0 mm | - | 916 W/m² | - |
| 1777837031 | 22.22° C | 21% | 1037.6 hPa | 0 mm | - | 921 W/m² | - |
| 1777836728 | 22.22° C | 21% | 1037.5 hPa | 0 mm | - | 929 W/m² | - |
| 1777836423 | 22.22° C | 21% | 1037.5 hPa | 0 mm | - | 934 W/m² | - |
| 1777836119 | 22.22° C | 21% | 1037.5 hPa | 0 mm | - | 938 W/m² | - |
| 1777835815 | 22.78° C | 24% | 1037.3 hPa | 0 mm | - | 941 W/m² | - |
| 1777835512 | 22.78° C | 21% | 1037.6 hPa | 0 mm | - | 945 W/m² | - |
| 1777835209 | 22.78° C | 22% | 1037.6 hPa | 0 mm | - | 947 W/m² | - |
| 1777834906 | 22.22° C | 22% | 1037.5 hPa | 0 mm | - | 949 W/m² | - |
| 1777834603 | 22.22° C | 22% | 1037.4 hPa | 0 mm | - | 951 W/m² | - |
| 1777834298 | 22.22° C | 20% | 1037.6 hPa | 0 mm | - | 954 W/m² | - |
| 1777833994 | 21.67° C | 23% | 1037.7 hPa | 0 mm | - | 951 W/m² | - |
| 1777833690 | 21.67° C | 25% | 1037.7 hPa | 0 mm | - | 953 W/m² | - |
| 1777833387 | 21.67° C | 25% | 1037.8 hPa | 0 mm | - | 954 W/m² | - |
| 1777833084 | 22.22° C | 23% | 1037.9 hPa | 0 mm | - | 953 W/m² | - |
| 1777832782 | 22.22° C | 25% | 1037.8 hPa | 0 mm | - | 953 W/m² | - |
| 1777832480 | 21.67° C | 28% | 1037.8 hPa | 0 mm | - | 947 W/m² | - |
| 1777832177 | 21.67° C | 28% | 1038 hPa | 0 mm | - | 945 W/m² | - |
* Rain latest hour (hover to see other rain measurements)
** Current wind speed in m/s (hover to see current wind gust speed)